Regional Weather Roundup
Issued by NWS Charleston, SC

Current Version | Previous Version | Graphics & Text | Print | Product List | Glossary On
Versions: 1 2 3 4 5 6 7 8 9 10 11 12 13 14 15 16 17 18 19 20 21 22 23 24 25 26 27 28 29 30 31 32 33 34 35 36 37 38 39 40 41 42 43 44 45 46 47 48 49 50
000 ASUS42 KCHS 251812 RWRCHS REGIONAL WEATHER ROUNDUP NATIONAL WEATHER SERVICE CHARLESTON SC 200 PM EDT SUN JUN 25 2017 NOTE: "FAIR" INDICATES FEW OR NO CLOUDS BELOW 12,000 FEET WITH NO SIGNIFICANT WEATHER AND/OR OBSTRUCTIONS TO VISIBILITY. NOT ALL STATIONS ARE QUALITY CONTROLLED. USE DATA WITH CAUTION... ESPECIALLY DEWPOINT OBSERVATIONS. SCZ027-030-031-034>040-042>050-251900- ...SOUTHEAST SOUTH CAROLINA... CITY SKY/WX TMP DP RH WIND PRES REMARKS N CHARLESTON CLOUDY 88 73 61 SW7 30.05F HX 95 6HR MIN TEMP: 78; 6HR MAX TEMP: 89; WATERFRONT PRK N/A 85 76 74 S9 30.05F HX 95 JOHNS ISLAND FAIR 86 77 74 S8G15 30.06F HX 97 PINOPOLIS N/A 84 75 74 CALM 30.00F HX 92 MONCKS CORNER FAIR 86 72 62 W3 30.05F HX 92 SUMMERVILLE MOCLDY 88 73 62 CALM 30.06F HX 96 BEAUFORT MCAS PTSUNNY 87 78 74 S3 30.05F HX 100 6HR MIN TEMP: 80; 6HR MAX TEMP: 89; BEAUFORT ARPT MOCLDY 86 75 70 S7 30.04F HAZE HX 95 HILTON HEAD IS PTSUNNY 86 79 79 S14 30.06F HX 99 WALTERBORO CLOUDY 79 75 89 SW3 30.07S ALLENDALE RAIN 79 77 94 N9G15 30.07R VSB 3/4 ...SOUTHERN MIDLANDS AND PEE DEE... CITY SKY/WX TMP DP RH WIND PRES REMARKS GEORGETOWN MOCLDY 88 73 62 W8 30.06F HX 96 KINGSTREE CLOUDY 84 73 70 S3 30.06S HX 91 ORANGEBURG CLOUDY 85 73 67 NW7 30.06F HX 91 6HR MIN TEMP: 76; 6HR MAX TEMP: 87; BARNWELL CLOUDY 88 77 70 CALM 30.06F HX 100 AIKEN FAIR 86 73 66 W9 30.11F HX 93 MANNING CLOUDY 82 75 78 SW14 30.06F COLUMBIA PTSUNNY 88 69 53 N7 30.06F HX 92 6HR MIN TEMP: 73; 6HR MAX TEMP: 90; SUMTER PTSUNNY 86 72 63 CALM 30.04F HX 92 6HR MIN TEMP: 74; 6HR MAX TEMP: 86; FLORENCE PTSUNNY 85 73 67 SW7 30.07F HX 91 6HR MIN TEMP: 76; 6HR MAX TEMP: 85; MYRTLE BEACH PTSUNNY 86 70 58 SW7 30.06F HX 90 N MYRTLE BEACH CLOUDY 84 75 74 S7 30.05F HX 92 6HR MIN TEMP: 79; 6HR MAX TEMP: 86; $$ GAZ063-065-086>088-099>101-113>116-118-119-134>141-150-251900- ...SOUTHEAST GEORGIA... CITY SKY/WX TMP DP RH WIND PRES REMARKS SAVANNAH ARPT PTSUNNY 90 70 51 SW9 30.04F THUNDER HX 95 6HR MIN TEMP: 80; 6HR MAX TEMP: 93; HUNTER AAF PTSUNNY 92 74 54 S10G16 30.01F HX 102 6HR MIN TEMP: 79; 6HR MAX TEMP: 93; FORT STEWART MOSUNNY 92 71 50 SW16 30.02F HX 99 6HR MIN TEMP: 77; 6HR MAX TEMP: 93; STATESBORO TSTM 74 74 100 SW3 30.09S SYLVANIA TSTM 77 76 99 S5 30.09S CLAXTON TSTM 77 75 95 CALM 30.07F ...CSRA...CENTRAL AND FAR SOUTHEAST GEORGIA... CITY SKY/WX TMP DP RH WIND PRES REMARKS THOMSON MOSUNNY 85 71 63 NE7 30.14F HX 90 AUGUSTA-BUSH MOSUNNY 90 74 59 NE3 30.05F HX 99 6HR MIN TEMP: 77; 6HR MAX TEMP: 91; AUGUSTA-DANIEL MOSUNNY 89 70 53 NW7 30.08F HX 94 SWAINSBORO MOCLDY 84 77 79 NW9 30.08S HX 94 VIDALIA PTSUNNY 86 77 74 W10 30.07F HX 97 EASTMAN FAIR 87 66 48 NW8 30.10F HAZLEHURST N/A 88 77 69 W5 30.07S HX 100 ALMA PTSUNNY 89 73 59 W10 30.07F HX 97 6HR MIN TEMP: 79; 6HR MAX TEMP: 91; WAYCROSS CLOUDY 93 81 67 W7 30.07F HX 114 JESUP FAIR 91 70 49 SW13 30.06F HX 97 BAXLEY CLOUDY 88 79 74 W8 30.07S HX 102 BRUNSWICK MOSUNNY 91 73 55 W12G18 30.07F HX 100 SAINT SIMONS SUNNY 93 70 46 W13 30.06F HX 99 6HR MIN TEMP: 80; 6HR MAX TEMP: 94; $$ SCZ027-028-034-036>038-045-046-048>050-GAZ119-141-251900- ...LAKE AND SUPPLEMENTAL COASTAL OBSERVATIONS... STATION/POSITION TIME TEMP WIND PRES WAVE SWELL AIR SEA DIR/SP/G HT/PER HT/PER/DIR (UTC) (F) (DEG/KT/KT) (MB) (FT/S) (FT/S/D) WINYAH BAY NOT AVBL LAKE MURRAY 1720 85 360/ 1/ 4 1017.3F ACE BASIN NERRS 1645 86 CALM 1019.0 FORT PULASKI 1748 87 85 200/ 10/ 16 1017.6F SAPELO ISLAND 1700 89 240/ 9 1018.0 $$ ANZ835-935-AMZ111-154-330-350-352-354-370-450-454-472-251900- ...C-MAN AND BUOY OBSERVATIONS... STATION/POSITION TIME TEMP WIND PRES WAVE SWELL AIR SEA DIR/SP/G HT/PER HT/PER/DIR (UTC) (F) (DEG/KT/KT) (MB) (FT/S) (FT/S/D) BUOY 41004 1750 80 81 230/ 12/ 14 1018.0F 4/ 7 3/140/ 7 BUOY 41008 1650 81 83 200/ 10/ 12 1018.6 2/ 9 2/120/ 9 FOLLY BEACH CMAN 1700 84 180/ 6/ 7 1019.0F CAPERS NEARSHORE 1708 88 84 210/ 8/ 10 1018.5F FRIPP NEARSHORE 1708 82 85 190/ 10/ 12 1018.1F STATION/POSITION TIME TEMP WIND PRES WAVE SWELL AIR SEA DIR/SP/G HT/PER HT/PER/DIR (UTC) (F) (DEG/KT/KT) (MB) (FT/S) (FT/S/D) 5E ST. MARYS GA 1730 83 N/A 2/ 9 FRYING PAN BUOY 1750 80 80 230/ 12/ 14 1017.5F 4/ 6 3/170/ 6 BUOY 41025 1750 79 80 260/ 8/ 8 1016.6F 3/ 6 3/210/ 6 CAPE LOOKOUT NC 1700 80 250/ 8/ 12 1016.8F BUOY 41002 1750 81 81 210/ 14/ 16 1020.4F 4/ 6 2/100/ 8 BUOY 41010 1750 83 84 190/ 8/ 12 1020.6F 3/ 8 3/120/ 8 ST AUGUSTINE FL 1800 79 79 130/ 11/ 12 1019.5F $$

USA.gov is the U.S. government's official web portal to all federal, state and local government web resources and services.